Lapse_Rate
1.0 0.8 0.6 0.3 0.2 0.0 -0.4 -0.7 -0.9 -1.2 -1.2 -1.3 -1.4 -1.5 -1.7 -1.9 -2.2 -2.8 -1.3 1.4 2.1 3.4 3.9 3.5 4.4 5.7 6.9 6.5 7.0 7.5 6.5 6.5 6.5 6.5 6.5 6.8 6.6 6.3 5.7 7.2 7.4 7.2 6.7 7.2 6.4
1.1 1.0 0.9 0.6 0.4 0.1 0.0 -0.3 -0.8 -1.0 -1.3 -1.5 -1.6 -1.7 -1.7 -1.8 -2.5 -2.6 -0.1 1.9 3.2 3.4 3.3 3.4 3.8 6.1 6.0 6.4 6.7 6.6 6.5 6.5 6.5 6.5 6.5 6.8 6.7 7.0 6.9 6.8 7.1 7.2 6.7 6.5 5.8
1.4 1.1 0.9 0.9 0.8 0.4 0.1 0.0 -0.5 -0.9 -1.1 -1.6 -1.5 -1.5 -1.9 -2.0 -0.6 2.3 0.9 2.3 3.1 4.1 3.5 4.6 4.8 7.2 6.5 6.4 6.4 6.7 6.5 6.5 6.5 6.8 7.0 6.6 6.6 7.1 6.7 6.5 6.9 6.8 6.6 6.3 6.2
1.1 1.0 1.0 0.9 0.8 0.5 0.3 0.1 -0.4 -0.6 -1.1 -1.2 -1.2 -1.5 -1.7 -1.9 6.5 4.3 1.8 2.4 3.3 4.3 4.7 5.1 5.9 6.0 6.3 6.5 6.4 6.5 6.5 6.6 6.6 6.8 6.8 6.4 6.3 6.4 6.8 6.8 6.4 6.0 5.9 5.6 5.7
1.0 0.8 0.9 0.8 0.8 0.5 0.3 -0.1 -0.6 -0.9 -0.7 -1.2 -0.8 -0.8 -1.2 2.4 1.4 3.5 3.0 3.6 3.1 3.8 4.8 5.1 5.9 5.8 6.5 6.3 6.4 6.5 6.4 6.0 6.0 6.1 6.9 7.0 6.7 6.3 6.5 6.3 7.7 6.1 6.3 6.0 5.6
1.5 1.2 0.8 0.7 0.6 0.4 0.2 -0.2 -0.8 -1.2 -1.0 -0.4 -0.5 -0.6 1.0 6.1 4.6 2.9 2.1 2.3 2.5 3.8 4.8 5.3 6.0 5.7 6.0 6.5 6.4 6.4 6.3 5.9 5.7 4.9 6.3 6.6 6.5 6.9 7.1 6.9 6.1 7.0 6.2 6.3 6.1
1.1 1.0 0.7 0.6 0.4 0.1 -0.3 -0.8 -1.4 -1.2 -0.9 -0.4 0.3 0.6 2.4 2.8 3.7 3.1 2.4 2.5 2.6 3.6 3.8 5.6 6.3 6.6 6.4 6.5 6.1 6.0 6.5 6.4 6.3 6.3 6.6 7.0 6.5 6.5 6.3 6.9 6.5 7.2 6.9 6.3 6.3
0.8 0.7 0.5 0.3 0.0 -0.2 -1.0 -1.7 -2.0 -1.3 -0.6 -0.4 1.2 1.3 1.5 3.6 2.5 3.2 3.7 3.6 3.7 4.8 5.3 5.5 6.9 6.4 6.3 5.8 5.9 6.5 6.5 6.5 6.5 6.4 6.5 6.3 6.5 6.5 6.3 5.8 6.5 7.2 7.3 7.4 7.1
0.8 0.7 0.4 0.2 -0.3 -1.0 -1.6 -2.5 -1.3 -0.4 0.1 1.0 0.2 2.4 3.2 3.9 3.7 3.1 4.0 3.8 3.7 5.4 6.0 7.5 7.0 5.9 6.1 6.5 6.5 6.5 6.5 6.5 6.5 6.5 6.5 6.5 6.5 6.6 7.2 7.1 6.9 7.1 7.4 7.4 7.0
0.6 0.4 0.1 -0.3 -0.8 -1.5 -2.2 -2.1 1.0 1.1 1.8 2.9 3.7 4.3 3.3 5.6 4.6 3.2 3.6 5.0 5.2 4.8 6.5 6.6 4.3 6.5 6.5 6.5 6.5 6.5 6.5 6.5 6.5 6.5 6.5 6.5 6.5 6.5 6.9 7.0 6.9 6.8 7.2 7.1 6.8
0.6 0.3 0.0 -0.5 -1.3 -2.4 -2.8 -1.2 3.1 3.7 2.8 3.2 4.0 4.2 5.2 4.9 5.4 4.0 4.4 6.3 5.6 5.4 6.5 5.8 6.5 6.5 6.5 6.6 6.5 6.5 6.5 6.5 6.5 6.5 6.5 6.5 6.5 6.5 6.7 6.8 6.5 6.5 6.7 7.0 6.7
0.3 0.2 -0.3 -1.2 -2.2 -3.2 -3.4 3.3 6.1 5.8 5.1 2.8 3.6 4.0 4.0 5.7 6.1 5.6 5.8 5.8 6.2 6.5 6.3 6.5 6.5 6.5 6.5 6.5 6.5 6.5 6.5 6.5 6.5 6.5 6.5 6.5 6.5 6.5 6.5 6.6 6.5 6.6 6.7 6.7 6.6
0.1 -0.3 -1.0 -1.9 -3.0 -3.1 -0.4 4.3 1.4 2.0 5.1 4.8 3.7 4.1 4.5 4.0 5.2 5.1 5.3 5.1 6.3 6.5 6.5 6.5 6.5 6.4 6.5 6.5 6.5 6.5 6.5 6.5 6.5 6.5 6.5 6.5 6.5 6.5 6.5 6.7 6.4 5.7 6.1 6.3 6.9
-0.5 -0.8 -1.8 -2.9 -0.0 -2.7 2.3 2.8 -0.9 -0.3 6.5 6.5 6.1 5.3 5.1 5.2 6.3 6.0 5.4 5.6 6.4 6.5 6.5 6.5 6.4 6.5 6.5 6.5 6.5 6.5 6.5 6.5 6.5 6.5 6.5 6.5 6.5 6.5 6.5 6.5 6.4 5.9 5.9 5.0 6.5
-1.1 -1.3 -2.3 -3.3 -3.3 1.5 4.1 -1.5 -0.7 3.5 6.6 6.5 6.3 6.1 4.7 5.1 5.7 6.7 5.8 5.5 6.5 6.5 6.5 6.5 6.5 6.5 6.5 6.5 6.5 6.5 6.5 6.5 6.5 6.5 6.5 6.5 6.5 6.5 6.5 6.5 6.5 6.4 6.0 5.5 5.2
-1.9 -2.2 -2.8 -3.8 -5.1 -1.5 -1.2 -1.6 2.6 6.5 6.5 6.5 6.3 6.4 6.4 6.0 6.3 5.5 5.4 4.2 5.5 6.5 6.5 6.5 6.1 6.4 6.5 6.5 6.5 6.5 6.5 6.5 6.5 6.5 6.5 6.5 6.5 6.5 6.5 6.5 6.5 6.1 6.6 6.1 5.8
-2.7 -3.3 -3.9 -2.2 3.7 -0.7 -0.9 3.1 6.5 6.5 6.5 6.5 6.5 6.5 6.5 6.5 6.5 6.5 6.5 6.5 6.5 6.5 6.5 6.5 6.5 6.4 6.2 6.5 6.5 6.5 6.5 6.5 6.5 6.5 6.5 6.5 6.5 6.5 6.5 6.5 6.5 6.4 6.3 6.8 6.1
-3.5 -3.9 -3.4 -1.4 -1.0 -1.4 2.5 6.0 6.5 6.5 6.5 6.5 6.5 6.5 6.5 6.5 6.5 6.5 6.5 6.5 6.5 6.5 6.5 6.5 6.5 6.5 6.5 6.5 6.5 6.5 6.5 6.5 6.5 6.4 6.5 6.5 6.5 6.5 6.5 5.7 6.7 6.1 5.3 6.5 6.4
-3.9 -2.6 -0.6 0.0 -0.4 -1.0 3.6 6.5 6.5 6.5 6.5 6.5 6.5 6.5 6.5 6.5 6.5 6.5 6.5 6.5 6.5 6.5 6.5 6.5 6.5 6.5 6.5 6.5 6.5 6.5 6.5 6.5 6.5 6.5 6.5 6.5 6.5 6.5 6.5 6.5 6.5 6.6 5.9 5.2 6.1
-3.4 -0.7 2.2 0.8 0.3 0.9 5.8 6.5 6.5 6.4 6.5 6.5 6.5 6.5 6.5 6.5 6.5 6.5 6.5 6.5 6.5 6.4 6.3 6.4 6.5 6.5 6.4 6.3 6.3 6.5 6.5 6.5 6.5 6.5 6.5 6.5 6.5 6.5 6.5 6.5 6.5 6.6 6.7 6.3 4.9
-2.3 2.3 3.6 0.2 0.7 1.7 6.5 6.5 6.5 6.8 6.5 6.5 6.5 6.5 6.5 6.5 6.5 6.5 6.4 6.5 6.5 6.5 5.7 6.5 6.5 6.5 6.5 6.5 6.5 6.5 6.5 6.5 6.5 6.5 6.5 6.5 6.5 6.5 6.5 6.5 6.5 6.7 6.9 6.9 4.8
-0.8 6.3 3.5 0.3 4.4 4.6 6.5 6.5 5.4 6.6 6.6 6.5 6.4 6.4 6.5 6.5 6.5 6.5 6.5 6.5 6.8 6.3 6.5 6.5 6.5 6.5 6.5 6.5 6.5 6.5 6.5 6.5 6.5 6.5 6.5 6.5 6.5 6.5 6.5 6.7 6.9 6.9 7.3 6.5 5.3
0.6 0.5 1.8 1.1 6.5 6.5 6.3 6.5 6.4 6.5 6.5 6.5 6.5 6.5 6.5 6.5 6.5 6.5 6.5 6.6 6.7 6.5 6.5 6.5 6.5 6.5 6.5 6.5 6.5 6.5 6.4 6.5 6.5 6.5 6.5 6.5 6.5 6.5 6.6 6.7 7.0 7.0 7.4 7.2 5.7
0.6 6.5 1.8 1.0 2.4 6.4 6.6 6.5 6.5 6.7 6.5 6.4 6.5 6.2 6.5 6.5 6.5 6.5 6.5 6.5 6.6 6.7 7.0 6.0 6.5 6.5 6.5 6.5 6.5 6.5 6.5 6.5 6.5 6.5 6.5 6.5 6.5 6.5 6.5 6.5 6.8 7.1 7.6 7.5 6.5
0.2 5.3 4.3 6.5 5.7 6.3 6.3 6.5 6.5 6.5 5.9 5.7 6.5 6.5 6.5 6.5 6.5 6.5 6.5 6.5 6.1 6.1 5.3 6.5 6.5 6.5 6.5 6.5 6.5 6.5 6.5 6.5 6.5 6.5 6.5 6.5 6.5 6.5 6.5 6.6 6.8 7.2 7.5 7.4 6.9
2.2 3.4 1.5 3.6 4.1 6.3 6.6 6.5 6.5 6.5 6.4 6.5 6.5 6.5 6.5 6.5 6.5 6.5 6.5 6.5 6.5 6.1 6.5 6.3 6.4 6.5 6.5 6.5 6.5 6.5 6.4 6.5 6.6 6.5 6.6 6.5 6.5 6.4 6.5 6.5 6.3 6.1 6.6 7.2 7.1
-0.6 0.3 1.7 4.8 5.8 6.5 6.5 6.5 6.5 6.4 6.0 6.0 6.5 6.5 6.5 6.5 6.0 5.8 5.1 4.3 6.0 6.5 6.5 6.5 6.5 6.5 6.5 6.5 6.5 6.5 6.5 6.5 6.5 6.5 6.5 6.5 6.5 6.3 6.5 6.7 6.3 5.4 5.1 5.5 5.6
Wind_Speed
19 19 18 19 19 20 20 20 20 18 16 14 12 11 8 7 6 2 6 10 8 10 9 9 3 3 4 3 2 2 1 2 3 0 5 11 6 2 8 8 4 2 7 15 17
19 19 19 19 19 20 20 19 19 19 17 15 13 10 6 4 1 8 10 13 12 19 8 11 6 6 2 3 3 2 1 3 1 3 5 7 8 7 5 6 11 15 19 19 19
20 20 20 20 19 19 20 19 19 18 17 15 13 8 3 0 2 7 15 16 15 14 7 5 7 4 2 2 3 2 3 1 1 5 12 10 10 5 10 5 9 18 19 19 19
21 21 21 22 21 20 20 19 19 18 17 14 11 6 1 1 1 3 21 19 17 10 8 7 6 6 4 4 4 3 8 6 2 7 8 6 9 5 3 5 14 15 18 16 17
21 21 21 21 22 22 21 20 19 18 15 12 8 4 1 1 7 3 21 17 9 6 8 7 8 5 5 4 4 7 5 6 5 8 8 9 5 10 8 10 13 17 18 16 14
22 22 22 22 22 22 22 22 20 18 14 9 6 3 1 2 1 13 11 10 7 6 5 6 8 5 3 2 2 1 5 9 4 9 8 8 6 10 10 16 12 17 17 16 16
23 23 23 23 23 23 24 24 23 19 13 7 7 4 1 8 2 11 9 4 7 6 6 2 3 4 1 2 4 5 3 4 6 5 5 14 5 5 13 15 18 15 16 18 17
24 24 25 24 23 24 25 26 26 18 10 7 5 2 6 2 9 9 6 5 6 3 4 5 4 2 1 4 6 4 4 4 2 1 6 1 1 6 13 13 16 20 18 17 17
26 26 26 25 25 23 24 27 20 3 9 10 5 2 6 5 5 7 4 8 7 2 3 4 4 1 2 2 4 6 2 3 2 4 5 3 1 6 9 10 12 17 19 16 17
26 26 27 26 24 23 23 16 5 11 6 5 1 2 5 5 5 8 5 14 5 6 2 4 3 3 3 3 4 3 4 2 2 5 1 4 1 7 9 11 10 18 20 17 17
26 26 26 26 24 20 10 2 3 3 2 8 5 4 5 7 5 4 7 6 5 5 5 4 4 6 7 6 4 3 4 0 3 3 2 7 4 9 8 6 10 15 14 16 16
27 27 26 25 23 19 4 3 5 3 6 9 7 6 6 3 2 5 14 6 6 6 5 4 6 8 6 5 5 2 3 3 5 3 5 2 2 4 6 5 7 10 13 13 14
27 27 26 25 26 3 2 4 4 3 2 5 5 4 5 7 5 8 10 5 7 6 5 7 5 7 5 3 4 2 3 3 5 2 3 6 1 2 3 1 1 2 6 8 16
27 27 25 27 1 3 3 2 7 5 4 5 4 5 5 3 2 4 8 7 3 8 8 5 3 7 4 3 6 1 7 6 3 2 1 0 2 3 4 7 6 6 6 7 13
27 25 21 10 1 0 5 8 5 2 1 2 2 2 2 6 4 3 1 5 7 6 6 5 6 4 3 6 6 7 6 6 3 2 3 1 4 5 3 5 10 12 13 11 10
27 23 15 1 1 6 11 7 2 3 1 2 3 4 5 3 1 3 4 6 3 5 3 5 2 5 8 6 9 5 5 7 5 3 2 2 4 4 3 5 5 13 16 15 14
28 21 5 2 2 6 6 3 3 3 5 6 4 4 5 2 4 4 5 6 3 5 3 3 2 5 3 3 3 5 6 2 3 2 4 2 4 6 8 12 8 13 19 18 16
30 15 9 3 10 6 3 5 7 5 4 4 4 5 5 6 7 6 4 5 7 5 4 5 1 6 8 3 5 5 7 5 5 5 4 3 5 1 6 10 15 4 12 13 14
22 2 1 3 3 2 4 6 1 4 6 6 1 7 7 6 5 6 5 3 4 4 5 5 1 5 4 5 2 4 5 3 7 2 3 2 4 6 18 19 20 18 2 5 9
2 3 4 13 5 3 4 4 3 4 6 3 5 3 3 7 5 5 6 4 6 7 2 2 5 3 5 5 7 7 1 3 4 3 2 2 3 4 16 19 19 19 16 11 7
3 4 3 10 3 6 4 3 4 9 5 7 4 5 4 3 5 4 6 2 7 6 8 2 3 4 5 8 5 6 5 5 5 3 5 4 2 7 7 11 17 18 17 16 9
3 3 4 4 4 2 3 4 6 9 9 7 4 5 5 6 6 4 4 4 14 3 4 4 5 5 2 5 4 5 3 3 4 3 2 3 2 6 10 13 16 17 18 19 17
3 1 4 3 3 3 4 4 6 10 8 8 8 7 5 4 6 4 4 6 14 6 2 1 3 4 3 5 5 7 5 3 4 3 1 4 4 8 11 14 16 17 17 18 19
3 4 5 5 2 4 2 5 4 7 6 5 6 4 5 8 9 3 3 5 8 8 13 6 4 3 6 4 3 4 4 4 4 3 3 1 3 6 12 15 16 17 15 15 16
4 1 2 3 5 5 4 4 4 7 5 9 6 9 4 5 4 4 5 6 6 13 7 5 4 3 5 5 3 3 3 1 1 3 3 5 2 3 6 9 9 11 15 17 17
3 3 4 2 3 5 6 5 5 4 6 5 5 4 8 5 2 2 2 4 1 6 5 4 3 3 2 3 2 4 6 6 4 3 3 6 3 3 3 5 9 11 13 15 15
1 2 4 4 3 4 2 2 2 1 6 5 2 3 7 3 3 1 1 3 2 3 3 3 4 3 3 2 2 3 1 3 2 3 2 1 0 4 4 6 6 7 9 11 13
Wind_Direction
344 343 343 342 341 340 338 337 336 335 330 327 327 328 320 315 308 170 235 215 180 166 145 115 80 133 162 190 236 242 291 293 326 134 130 140 113 341 283 146 103 174 134 132 133
342 342 341 340 339 337 335 334 334 332 328 325 325 329 323 322 250 240 240 198 204 160 125 146 150 153 148 188 224 209 194 238 217 140 150 125 130 140 143 145 90 94 106 129 135
341 341 340 338 337 335 332 330 331 330 326 322 320 327 310 320 300 245 188 183 175 151 118 117 127 129 125 168 234 205 226 242 275 92 131 144 166 163 137 82 148 141 136 144 147
341 341 339 336 334 332 329 327 327 326 323 320 317 316 296 208 215 14 160 164 164 124 119 129 139 139 155 191 202 272 233 252 178 132 127 179 141 132 120 111 153 140 142 146 157
339 339 337 334 331 329 326 324 321 319 318 315 304 292 251 1 253 109 150 151 136 127 147 142 150 140 169 199 187 224 261 259 236 160 155 137 144 136 129 131 132 139 151 158 164
337 335 333 331 328 326 323 320 317 313 308 305 279 198 222 256 205 145 133 124 144 128 158 139 174 167 158 256 243 303 249 269 289 159 155 130 149 148 164 152 164 155 166 169 173
335 333 330 328 326 324 321 317 312 304 294 275 262 191 262 225 341 139 116 132 148 145 141 189 144 168 47 271 303 274 320 340 27 117 142 126 149 227 154 166 159 174 181 174 175
334 330 326 325 324 323 321 316 309 293 260 216 182 234 245 268 141 136 115 79 90 71 125 164 96 95 213 302 344 12 41 8 53 127 161 126 155 130 155 177 160 183 179 177 177
329 326 323 321 323 324 324 322 317 90 157 162 110 253 264 108 167 182 137 139 103 57 304 183 94 153 351 62 8 12 120 40 20 192 147 157 98 156 165 183 172 182 177 178 178
324 321 319 319 323 327 327 317 61 94 118 175 236 353 259 213 165 151 158 138 139 127 107 127 104 119 47 89 192 181 93 14 351 215 206 167 233 157 181 187 186 175 175 178 180
319 318 316 319 322 328 333 34 26 28 220 196 191 257 288 310 145 133 149 142 96 106 137 192 116 186 192 195 173 134 110 203 286 205 189 226 196 184 182 172 172 189 182 178 185
317 316 317 321 321 325 143 155 139 167 305 226 232 260 270 248 90 107 138 133 134 156 135 83 211 204 186 190 168 139 104 288 261 252 187 20 80 108 187 194 181 183 202 180 180
316 315 321 324 320 116 182 240 67 132 163 288 193 191 229 148 186 188 141 154 145 137 180 145 212 172 193 164 144 119 161 212 224 54 50 114 73 159 183 139 239 184 182 199 185
318 321 326 327 349 329 252 294 318 182 50 271 219 260 157 194 116 161 179 145 137 161 152 162 160 152 158 198 137 162 212 209 276 50 135 347 288 274 197 191 211 213 219 194 190
320 322 325 321 291 335 305 330 301 90 314 145 169 107 102 136 160 43 115 52 152 145 109 227 153 155 166 206 155 215 161 183 218 134 107 16 75 261 132 237 218 218 215 209 199
324 319 321 123 145 245 307 309 71 35 242 12 124 133 98 23 53 71 74 48 122 95 68 189 190 144 199 211 174 121 82 39 48 80 46 205 131 287 216 220 220 218 220 212 204
324 318 277 165 266 325 312 38 50 102 321 336 25 101 106 99 65 73 43 30 95 98 128 41 9 336 33 127 92 92 81 27 39 39 198 25 75 232 288 330 302 224 214 207 210
327 326 187 218 274 337 45 55 58 318 306 322 4 62 73 355 26 26 62 42 10 64 86 133 328 359 337 39 165 163 157 150 162 170 203 20 179 293 333 328 353 289 210 209 200
325 319 347 264 217 118 69 61 240 307 310 332 27 66 17 8 99 80 59 46 15 351 128 133 73 318 59 26 47 169 77 169 108 21 90 245 324 328 353 2 2 11 34 232 208
23 11 306 335 154 68 77 98 347 336 315 21 92 56 80 358 68 72 26 331 338 24 174 143 90 20 305 25 25 93 93 71 12 124 146 348 66 314 342 344 350 0 354 325 233
44 40 267 355 44 45 70 70 20 350 33 43 36 63 88 49 54 66 360 51 349 343 58 70 80 333 33 14 305 11 17 30 108 104 152 142 282 10 335 352 354 358 355 343 271
78 39 326 10 51 16 48 354 8 339 6 25 82 62 54 32 44 80 100 8 334 316 47 358 104 66 70 290 35 67 66 100 119 209 56 120 208 19 16 16 12 9 13 14 25
77 274 335 37 81 15 352 12 57 14 16 11 23 33 37 47 87 51 55 342 4 42 76 132 31 89 14 331 2 52 342 91 105 80 30 128 223 44 15 19 12 15 21 24 26
75 37 339 37 48 102 56 11 20 29 55 57 12 40 50 33 16 84 38 350 354 19 43 82 69 126 164 139 148 72 1 24 95 88 153 191 270 6 20 14 5 8 18 30 31
32 108 178 355 2 37 59 16 14 10 12 28 39 33 34 60 35 44 13 352 358 358 28 76 99 70 66 86 91 143 160 344 353 165 146 202 302 59 23 26 8 2 14 23 22
100 111 31 51 348 34 14 1 34 351 29 9 84 33 46 85 73 125 41 30 338 338 42 7 116 107 75 63 117 201 225 205 248 298 214 159 237 54 330 50 22 11 8 12 11
349 39 98 318 17 67 333 34 21 47 26 56 45 84 46 55 173 232 130 92 55 37 45 57 120 90 159 359 93 36 233 168 127 59 79 220 128 358 7 34 29 8 13 2 355